| time (UTC) | temp F | wind direction | speed knots | gust knots | rain 1hr in | rain 24hr in | rain mn in | humidity % | barometer mb |
| 20260902101913 | 72 | 67 | 0.0 | 0.0 | 0.00 | 0.00 | 0.00 | 47 | 1016.0 |
| 20260902100912 | 73 | 67 | 0.0 | 0.0 | 0.00 | 0.00 | 0.00 | 44 | 1015.9 |
| 20260902095914 | 73 | 67 | 0.0 | 0.9 | 0.00 | 0.00 | 0.00 | 46 | 1016.0 |
| 20260902094011 | 74 | 67 | 0.0 | 0.0 | 0.00 | 0.00 | 0.00 | 43 | 1015.9 |
| 20260902093027 | 73 | 67 | 0.0 | 0.9 | 0.00 | 0.00 | 0.00 | 46 | 1015.9 |
| 20260902092111 | 73 | 67 | 0.0 | 0.0 | 0.00 | 0.00 | 0.00 | 45 | 1015.9 |
| 20260902091113 | 72 | 47 | 1.7 | 3.5 | 0.00 | 0.00 | 0.00 | 48 | 1016.0 |
| 20260902085114 | 74 | 90 | 0.0 | 0.0 | 0.00 | 0.00 | 0.00 | 45 | 1015.9 |
| 20260902084127 | 73 | 90 | 1.7 | 2.6 | 0.00 | 0.00 | 0.00 | 46 | 1015.7 |
| 20260902082227 | 73 | 330 | 0.0 | 0.9 | 0.00 | 0.00 | 0.00 | 47 | 1016.0 |
| 20260902081227 | 74 | 337 | 0.0 | 0.0 | 0.00 | 0.00 | 0.00 | 46 | 1015.9 |
| 20260902075329 | 74 | 326 | 0.9 | 1.7 | 0.00 | 0.00 | 0.00 | 45 | 1015.6 |
| 20260902074410 | 75 | 292 | 1.7 | 2.6 | 0.00 | 0.00 | 0.00 | 44 | 1015.6 |
| 20260902074328 | 75 | 292 | 1.7 | 1.7 | 0.00 | 0.00 | 0.00 | 43 | 1015.7 |
| 20260902073312 | 76 | 67 | 0.0 | 0.0 | 0.00 | 0.00 | 0.00 | 42 | 1015.4 |
| 20260902073227 | 76 | 67 | 0.0 | 0.9 | 0.00 | 0.00 | 0.00 | 41 | 1015.5 |
| 20260902072312 | 76 | 315 | 0.0 | 0.0 | 0.00 | 0.00 | 0.00 | 40 | 1015.4 |
| 20260902071326 | 77 | 202 | 0.0 | 0.9 | 0.00 | 0.00 | 0.00 | 38 | 1015.4 |
| 20260902070411 | 77 | 185 | 2.6 | 4.3 | 0.00 | 0.00 | 0.00 | 37 | 1015.3 |
| 20260902065511 | 78 | 337 | 0.0 | 0.0 | 0.00 | 0.00 | 0.00 | 37 | 1015.3 |
| 20260902064526 | 79 | 337 | 0.0 | 0.9 | 0.00 | 0.00 | 0.00 | 36 | 1015.3 |
| 20260902063611 | 79 | 360 | 0.0 | 0.9 | 0.00 | 0.00 | 0.00 | 36 | 1015.3 |
| 20260902061713 | 82 | 156 | 0.9 | 2.6 | 0.00 | 0.00 | 0.00 | 33 | 1015.1 |
| 20260902060711 | 83 | 82 | 1.7 | 3.5 | 0.00 | 0.00 | 0.00 | 31 | 1014.9 |
| 20260902055724 | 83 | 113 | 2.6 | 4.3 | 0.00 | 0.00 | 0.00 | 31 | 1015.0 |
| 20260902053725 | 82 | 132 | 1.7 | 3.5 | 0.00 | 0.00 | 0.00 | 31 | 1014.9 |
| 20260902052807 | 83 | 136 | 0.9 | 2.6 | 0.00 | 0.00 | 0.00 | 30 | 1014.9 |
| 20260902051809 | 83 | 132 | 0.9 | 2.6 | 0.00 | 0.00 | 0.00 | 30 | 1015.2 |
| 20260902045924 | 83 | 154 | 2.6 | 6.1 | 0.00 | 0.00 | 0.00 | 28 | 1015.2 |
| 20260902044809 | 84 | 146 | 3.5 | 6.1 | 0.00 | 0.00 | 0.00 | 29 | 1014.9 |
| 20260902042925 | 84 | 152 | 1.7 | 4.3 | 0.00 | 0.00 | 0.00 | 29 | 1014.9 |
| 20260902041909 | 85 | 149 | 2.6 | 6.1 | 0.00 | 0.00 | 0.00 | 29 | 1014.8 |
| 20260902040926 | 85 | 162 | 2.6 | 6.1 | 0.00 | 0.00 | 0.00 | 29 | 1014.6 |
| 20260902040008 | 85 | 150 | 2.6 | 6.1 | 0.00 | 0.00 | 0.00 | 29 | 1014.6 |
| 20260902034024 | 85 | 175 | 2.6 | 4.3 | 0.00 | 0.00 | 0.00 | 28 | 1014.3 |
| 20260902033109 | 85 | 136 | 1.7 | 2.6 | 0.00 | 0.00 | 0.00 | 26 | 1014.3 |
| 20260902030110 | 86 | 195 | 4.3 | 7.8 | 0.00 | 0.00 | 0.00 | 25 | 1014.0 |
| 20260902030023 | 86 | 197 | 5.2 | 7.8 | 0.00 | 0.00 | 0.00 | 24 | 1014.0 |
| 20260902025027 | 86 | 202 | 4.3 | 6.1 | 0.00 | 0.00 | 0.00 | 25 | 1014.0 |
| 20260902024123 | 87 | 181 | 2.6 | 2.6 | 0.00 | 0.00 | 0.00 | 25 | 1013.8 |
| 20260902023109 | 87 | 188 | 2.6 | 4.3 | 0.00 | 0.00 | 0.00 | 24 | 1013.6 |
| 20260902021210 | 88 | 205 | 4.3 | 9.6 | 0.00 | 0.00 | 0.00 | 22 | 1013.7 |
| 20260902020308 | 89 | 192 | 4.3 | 6.1 | 0.00 | 0.00 | 0.00 | 23 | 1013.6 |
| 20260902013324 | 91 | 205 | 5.2 | 8.7 | 0.00 | 0.00 | 0.00 | 20 | 1013.9 |
| 20260902012408 | 91 | 207 | 7.0 | 11.3 | 0.00 | 0.00 | 0.00 | 21 | 1013.8 |
| 20260902010409 | 92 | 210 | 7.0 | 10.4 | 0.00 | 0.00 | 0.00 | 20 | 1014.0 |
| 20260902005424 | 92 | 222 | 8.7 | 14.8 | 0.00 | 0.00 | 0.00 | 20 | 1014.0 |
| 20260902003410 | 92 | 221 | 9.6 | 13.9 | 0.00 | 0.00 | 0.00 | 19 | 1014.1 |
| 20260902002507 | 92 | 211 | 7.8 | 11.3 | 0.00 | 0.00 | 0.00 | 19 | 1013.9 |
| 20260902002409 | 92 | 216 | 7.8 | 12.2 | 0.00 | 0.00 | 0.00 | 20 | 1013.9 |
| 20260902001425 | 93 | 209 | 7.8 | 12.2 | 0.00 | 0.00 | 0.00 | 19 | 1014.0 |
| 20260902000509 | 93 | 214 | 9.6 | 14.8 | 0.00 | 0.00 | 0.00 | 20 | 1014.0 |
| 20260901235608 | 93 | 218 | 7.8 | 12.2 | 0.00 | 0.00 | 0.00 | 18 | 1014.0 |
| 20260901234610 | 93 | 228 | 9.6 | 13.9 | 0.00 | 0.00 | 0.00 | 18 | 1014.2 |
| 20260901233623 | 93 | 185 | 7.8 | 13.0 | 0.00 | 0.00 | 0.00 | 19 | 1014.1 |
| 20260901232625 | 93 | 222 | 6.1 | 11.3 | 0.00 | 0.00 | 0.00 | 18 | 1014.3 |
| 20260901231708 | 93 | 200 | 6.1 | 11.3 | 0.00 | 0.00 | 0.00 | 17 | 1014.3 |
| 20260901230710 | 94 | 218 | 8.7 | 14.8 | 0.00 | 0.00 | 0.00 | 16 | 1014.4 |
| 20260901224825 | 93 | 203 | 7.0 | 12.2 | 0.00 | 0.00 | 0.00 | 21 | 1014.4 |
| 20260901222908 | 92 | 249 | 7.8 | 13.0 | 0.00 | 0.00 | 0.00 | 24 | 1014.5 |
| 20260901222008 | 92 | 215 | 7.0 | 9.6 | 0.00 | 0.00 | 0.00 | 25 | 1014.5 |
| 20260901221007 | 91 | 242 | 8.7 | 12.2 | 0.00 | 0.00 | 0.00 | 27 | 1014.8 |
| 20260901220023 | 92 | 253 | 10.4 | 13.9 | 0.00 | 0.00 | 0.00 | 27 | 1014.4 |
| 20260901215921 | 92 | 268 | 9.6 | 19.1 | 0.00 | 0.00 | 0.00 | 27 | 1014.6 |
| 20260901214908 | 91 | 206 | 6.1 | 9.6 | 0.00 | 0.00 | 0.00 | 26 | 1014.9 |
| 20260901214808 | 91 | 206 | 7.8 | 11.3 | 0.00 | 0.00 | 0.00 | 27 | 1014.9 |
| 20260901213808 | 92 | 223 | 3.5 | 7.0 | 0.00 | 0.00 | 0.00 | 27 | 1015.2 |
| 20260901210825 | 91 | 224 | 7.0 | 10.4 | 0.00 | 0.00 | 0.00 | 27 | 1015.4 |
| 20260901205906 | 91 | 216 | 4.3 | 9.6 | 0.00 | 0.00 | 0.00 | 28 | 1015.5 |
| 20260901204909 | 92 | 219 | 7.8 | 10.4 | 0.00 | 0.00 | 0.00 | 28 | 1015.9 |
| 20260901203923 | 92 | 175 | 4.3 | 8.7 | 0.00 | 0.00 | 0.00 | 29 | 1016.0 |
| 20260901203008 | 91 | 155 | 2.6 | 4.3 | 0.00 | 0.00 | 0.00 | 30 | 1016.4 |
| 20260901200107 | 90 | 161 | 0.9 | 3.5 | 0.00 | 0.01 | 0.00 | 32 | 1016.7 |
| 20260901194108 | 91 | 164 | 4.3 | 7.8 | 0.00 | 0.02 | 0.00 | 31 | 1016.8 |
| 20260901193107 | 90 | 171 | 1.7 | 4.3 | 0.00 | 0.02 | 0.00 | 33 | 1017.0 |
| 20260901192110 | 91 | 184 | 0.9 | 4.3 | 0.00 | 0.02 | 0.00 | 32 | 1017.3 |
| 20260901192025 | 91 | 220 | 1.7 | 6.1 | 0.00 | 0.02 | 0.00 | 32 | 1017.0 |
| 20260901191123 | 90 | 360 | 0.0 | 1.7 | 0.00 | 0.02 | 0.00 | 34 | 1017.3 |
| 20260901190110 | 88 | 267 | 0.0 | 1.7 | 0.00 | 0.03 | 0.00 | 36 | 1017.3 |
| 20260901185206 | 90 | 328 | 1.7 | 5.2 | 0.00 | 0.04 | 0.00 | 34 | 1017.7 |
| 20260901184211 | 88 | 150 | 0.0 | 1.7 | 0.00 | 0.04 | 0.00 | 37 | 1017.8 |
| 20260901183227 | 87 | 294 | 1.7 | 3.5 | 0.00 | 0.06 | 0.00 | 38 | 1017.9 |
| 20260901182225 | 88 | 336 | 0.9 | 3.5 | 0.00 | 0.21 | 0.00 | 38 | 1018.1 |
| 20260901181208 | 88 | 67 | 2.6 | 4.3 | 0.00 | 0.21 | 0.00 | 38 | 1018.1 |
| 20260901181125 | 88 | 47 | 0.9 | 3.5 | 0.00 | 0.21 | 0.00 | 38 | 1018.3 |
| 20260901180026 | 87 | 202 | 0.9 | 2.6 | 0.00 | 0.21 | 0.00 | 39 | 1018.4 |
| 20260901175007 | 86 | 114 | 0.9 | 2.6 | 0.00 | 0.21 | 0.00 | 40 | 1018.5 |
| 20260901174008 | 85 | 142 | 2.6 | 5.2 | 0.00 | 0.21 | 0.00 | 41 | 1018.5 |
| 20260901173022 | 86 | 61 | 2.6 | 6.1 | 0.00 | 0.21 | 0.00 | 42 | 1018.5 |
| 20260901172007 | 84 | 177 | 1.7 | 2.6 | 0.00 | 0.21 | 0.00 | 44 | 1018.6 |
| 20260901171007 | 84 | 136 | 0.9 | 1.7 | 0.00 | 0.21 | 0.00 | 44 | 1018.7 |
| 20260901170022 | 83 | 339 | 0.0 | 0.9 | 0.00 | 0.21 | 0.00 | 45 | 1018.7 |
| 20260901165109 | 82 | 157 | 0.0 | 2.6 | 0.00 | 0.21 | 0.00 | 46 | 1018.8 |
| 20260901164107 | 81 | 286 | 2.6 | 4.3 | 0.00 | 0.21 | 0.00 | 48 | 1018.9 |
| 20260901163123 | 79 | 180 | 0.0 | 0.0 | 0.00 | 0.21 | 0.00 | 50 | 1018.8 |
| 20260901162109 | 78 | 202 | 1.7 | 2.6 | 0.00 | 0.21 | 0.00 | 52 | 1018.9 |
| 20260901160123 | 76 | 220 | 2.6 | 3.5 | 0.00 | 0.21 | 0.00 | 55 | 1019.0 |
| 20260901155209 | 75 | 202 | 2.6 | 4.3 | 0.00 | 0.21 | 0.00 | 56 | 1018.9 |
| 20260901154307 | 75 | 157 | 0.9 | 0.9 | 0.00 | 0.21 | 0.00 | 57 | 1018.9 |
| 20260901153406 | 75 | 157 | 1.7 | 2.6 | 0.00 | 0.21 | 0.00 | 56 | 1019.1 |
| 20260901152423 | 76 | 202 | 2.6 | 3.5 | 0.00 | 0.21 | 0.00 | 54 | 1019.2 |
| 20260901150423 | 75 | 180 | 1.7 | 2.6 | 0.00 | 0.21 | 0.00 | 57 | 1019.2 |
| 20260901145408 | 74 | 202 | 0.0 | 0.9 | 0.00 | 0.21 | 0.00 | 58 | 1019.2 |
| 20260901144505 | 74 | 315 | 0.0 | 0.0 | 0.00 | 0.21 | 0.00 | 59 | 1019.2 |
| 20260901143509 | 72 | 315 | 0.0 | 0.0 | 0.00 | 0.21 | 0.00 | 62 | 1019.2 |
| 20260901142523 | 70 | 315 | 0.0 | 0.0 | 0.00 | 0.21 | 0.00 | 65 | 1019.2 |
| 20260901141608 | 71 | 2 | 0.0 | 2.6 | 0.00 | 0.21 | 0.00 | 63 | 1019.2 |
| 20260901140626 | 69 | 360 | 0.9 | 0.9 | 0.00 | 0.21 | 0.00 | 67 | 1019.3 |
| 20260901134708 | 67 | 337 | 0.0 | 0.0 | 0.00 | 0.21 | 0.00 | 72 | 1019.4 |
| 20260901133722 | 65 | 337 | 0.9 | 0.9 | 0.00 | 0.21 | 0.00 | 74 | 1019.2 |
| 20260901132809 | 65 | 337 | 0.0 | 0.9 | 0.00 | 0.21 | 0.00 | 76 | 1019.1 |
| 20260901132707 | 65 | 337 | 0.0 | 0.9 | 0.00 | 0.21 | 0.00 | 76 | 1019.2 |
| 20260901131707 | 65 | 337 | 1.7 | 1.7 | 0.00 | 0.21 | 0.00 | 74 | 1019.0 |
| 20260901130709 | 65 | 295 | 0.0 | 1.7 | 0.00 | 0.21 | 0.00 | 74 | 1019.0 |
| 20260901125723 | 65 | 270 | 0.0 | 0.0 | 0.00 | 0.21 | 0.00 | 73 | 1019.0 |
| 20260901124822 | 65 | 270 | 0.0 | 0.0 | 0.00 | 0.21 | 0.00 | 73 | 1018.9 |
| 20260901122923 | 65 | 315 | 1.7 | 2.6 | 0.00 | 0.21 | 0.00 | 73 | 1018.9 |
| 20260901122022 | 65 | 315 | 0.0 | 0.0 | 0.00 | 0.21 | 0.00 | 74 | 1019.0 |
| 20260901121008 | 65 | 315 | 0.0 | 0.0 | 0.00 | 0.21 | 0.00 | 73 | 1019.0 |
| 20260901120107 | 65 | 315 | 0.0 | 0.0 | 0.00 | 0.21 | 0.00 | 74 | 1019.0 |
| 20260901115107 | 65 | 315 | 0.0 | 0.0 | 0.00 | 0.21 | 0.00 | 74 | 1019.0 |
| 20260901114107 | 66 | 315 | 0.0 | 0.0 | 0.00 | 0.21 | 0.00 | 72 | 1019.1 |
| 20260901114022 | 66 | 315 | 0.0 | 0.0 | 0.00 | 0.21 | 0.00 | 73 | 1019.0 |
| 20260901113006 | 66 | 315 | 0.0 | 0.0 | 0.00 | 0.21 | 0.00 | 71 | 1019.0 |
| 20260901112007 | 66 | 315 | 1.7 | 2.6 | 0.00 | 0.21 | 0.00 | 71 | 1019.0 |
| 20260901111106 | 66 | 337 | 0.0 | 0.9 | 0.00 | 0.21 | 0.00 | 72 | 1019.1 |
| 20260901105208 | 66 | 337 | 0.9 | 1.7 | 0.00 | 0.21 | 0.00 | 71 | 1018.9 |
| 20260901104306 | 66 | 247 | 0.0 | 0.0 | 0.00 | 0.21 | 0.00 | 70 | 1018.8 |